Year,Month,Day,Hour,Minute,Value (Times are PST for temperature in C)
2018,09,17,00,00,11.00
2018,09,17,00,01,11.00
2018,09,17,00,02,11.00
2018,09,17,00,03,11.00
2018,09,17,00,04,10.90
2018,09,17,00,05,10.90
2018,09,17,00,06,10.90
2018,09,17,00,07,10.90
2018,09,17,00,08,10.90
2018,09,17,00,09,10.90
2018,09,17,00,10,10.90
2018,09,17,00,11,10.90
2018,09,17,00,12,10.90
2018,09,17,00,13,10.90
2018,09,17,00,14,10.80
2018,09,17,00,15,10.80
2018,09,17,00,16,10.80
2018,09,17,00,17,10.80
2018,09,17,00,18,10.80
2018,09,17,00,19,10.80
2018,09,17,00,20,10.80
2018,09,17,00,21,10.80
2018,09,17,00,22,10.80
2018,09,17,00,23,10.80
2018,09,17,00,24,10.80
2018,09,17,00,25,10.80
2018,09,17,00,26,10.80
2018,09,17,00,27,10.80
2018,09,17,00,28,10.80
2018,09,17,00,29,10.70
2018,09,17,00,30,10.70
2018,09,17,00,31,10.70
2018,09,17,00,32,10.70
2018,09,17,00,33,10.70
2018,09,17,00,34,10.70
2018,09,17,00,35,10.70
2018,09,17,00,36,10.70
2018,09,17,00,37,10.60
2018,09,17,00,38,10.60
2018,09,17,00,39,10.60
2018,09,17,00,40,10.60
2018,09,17,00,41,10.60
2018,09,17,00,42,10.60
2018,09,17,00,43,10.60
2018,09,17,00,44,10.60
2018,09,17,00,45,10.60
2018,09,17,00,46,10.60
2018,09,17,00,47,10.60
2018,09,17,00,48,10.60
2018,09,17,00,49,10.50
2018,09,17,00,50,10.50
2018,09,17,00,51,10.50
2018,09,17,00,52,10.50
2018,09,17,00,53,10.50
2018,09,17,00,54,10.50
2018,09,17,00,55,10.50
2018,09,17,00,56,10.50
2018,09,17,00,57,10.50
2018,09,17,00,58,10.50
2018,09,17,00,59,10.50
2018,09,17,01,00,10.50
2018,09,17,01,01,10.60
2018,09,17,01,02,10.50
2018,09,17,01,03,10.60
2018,09,17,01,04,10.60
2018,09,17,01,05,10.60
2018,09,17,01,06,10.60
2018,09,17,01,07,10.50
2018,09,17,01,08,10.50
2018,09,17,01,09,10.50
2018,09,17,01,10,10.50
2018,09,17,01,11,10.50
2018,09,17,01,12,10.50
2018,09,17,01,13,10.50
2018,09,17,01,14,10.60
2018,09,17,01,15,10.50
2018,09,17,01,16,10.50
2018,09,17,01,17,10.50
2018,09,17,01,18,10.50
2018,09,17,01,19,10.50
2018,09,17,01,20,10.50
2018,09,17,01,21,10.50
2018,09,17,01,22,10.50
2018,09,17,01,23,10.50
2018,09,17,01,24,10.50
2018,09,17,01,25,10.50
2018,09,17,01,26,10.40
2018,09,17,01,27,10.40
2018,09,17,01,28,10.40
2018,09,17,01,29,10.40
2018,09,17,01,30,10.40
2018,09,17,01,31,10.40
2018,09,17,01,32,10.40
2018,09,17,01,33,10.40
2018,09,17,01,34,10.40
2018,09,17,01,35,10.40
2018,09,17,01,36,10.40
2018,09,17,01,37,10.30
2018,09,17,01,38,10.30
2018,09,17,01,39,10.30
2018,09,17,01,40,10.40
2018,09,17,01,41,10.40
2018,09,17,01,42,10.40
2018,09,17,01,43,10.40
2018,09,17,01,44,10.40
2018,09,17,01,45,10.40
2018,09,17,01,46,10.30
2018,09,17,01,47,10.40
2018,09,17,01,48,10.30
2018,09,17,01,49,10.30
2018,09,17,01,50,10.30
2018,09,17,01,51,10.30
2018,09,17,01,52,10.30
2018,09,17,01,53,10.30
2018,09,17,01,54,10.30
2018,09,17,01,55,10.30
2018,09,17,01,56,10.30
2018,09,17,01,57,10.30
2018,09,17,01,58,10.30
2018,09,17,01,59,10.30
2018,09,17,02,00,10.30
2018,09,17,02,01,10.30
2018,09,17,02,02,10.30
2018,09,17,02,03,10.30
2018,09,17,02,04,10.30
2018,09,17,02,05,10.30
2018,09,17,02,06,10.30
2018,09,17,02,07,10.30
2018,09,17,02,08,10.30
2018,09,17,02,09,10.30
2018,09,17,02,10,10.20
2018,09,17,02,11,10.20
2018,09,17,02,12,10.20
2018,09,17,02,13,10.20
2018,09,17,02,14,10.20
2018,09,17,02,15,10.20
2018,09,17,02,16,10.20
2018,09,17,02,17,10.20
2018,09,17,02,18,10.20
2018,09,17,02,19,10.20
2018,09,17,02,20,10.20
2018,09,17,02,21,10.20
2018,09,17,02,22,10.20
2018,09,17,02,23,10.20
2018,09,17,02,24,10.20
2018,09,17,02,25,10.20
2018,09,17,02,26,10.20
2018,09,17,02,27,10.20
2018,09,17,02,28,10.20
2018,09,17,02,29,10.20
2018,09,17,02,30,10.20
2018,09,17,02,31,10.20
2018,09,17,02,32,10.20
2018,09,17,02,33,10.20
2018,09,17,02,34,10.20
2018,09,17,02,35,10.20
2018,09,17,02,36,10.20
2018,09,17,02,37,10.20
2018,09,17,02,38,10.20
2018,09,17,02,39,10.20
2018,09,17,02,40,10.20
2018,09,17,02,41,10.20
2018,09,17,02,42,10.20
2018,09,17,02,43,10.20
2018,09,17,02,44,10.20
2018,09,17,02,45,10.20
2018,09,17,02,46,10.20
2018,09,17,02,47,10.20
2018,09,17,02,48,10.20
2018,09,17,02,49,10.20
2018,09,17,02,50,10.20
2018,09,17,02,51,10.20
2018,09,17,02,52,10.20
2018,09,17,02,53,10.20
2018,09,17,02,54,10.20
2018,09,17,02,55,10.10
2018,09,17,02,56,10.20
2018,09,17,02,57,10.10
2018,09,17,02,58,10.10
2018,09,17,02,59,10.10
2018,09,17,03,00,10.10
2018,09,17,03,01,10.10
2018,09,17,03,02,10.20
2018,09,17,03,03,10.20
2018,09,17,03,04,10.10
2018,09,17,03,05,10.20
2018,09,17,03,06,10.20
2018,09,17,03,07,10.20
2018,09,17,03,08,10.20
2018,09,17,03,09,10.20
2018,09,17,03,10,10.20
2018,09,17,03,11,10.20
2018,09,17,03,12,10.20
2018,09,17,03,13,10.30
2018,09,17,03,14,10.30
2018,09,17,03,15,10.30
2018,09,17,03,16,10.30
2018,09,17,03,17,10.30
2018,09,17,03,18,10.30
2018,09,17,03,19,10.30
2018,09,17,03,20,10.30
2018,09,17,03,21,10.30
2018,09,17,03,22,10.30
2018,09,17,03,23,10.30
2018,09,17,03,24,10.30
2018,09,17,03,25,10.30
2018,09,17,03,26,10.30
2018,09,17,03,27,10.30
2018,09,17,03,28,10.20
2018,09,17,03,29,10.20
2018,09,17,03,30,10.20
2018,09,17,03,31,10.20
2018,09,17,03,32,10.20
2018,09,17,03,33,10.20
2018,09,17,03,34,10.20
2018,09,17,03,35,10.20
2018,09,17,03,36,10.20
2018,09,17,03,37,10.10
2018,09,17,03,38,10.10
2018,09,17,03,39,10.10
2018,09,17,03,40,10.10
2018,09,17,03,41,10.10
2018,09,17,03,42,10.10
2018,09,17,03,43,10.10
2018,09,17,03,44,10.10
2018,09,17,03,45,10.10
2018,09,17,03,46,10.10
2018,09,17,03,47,10.10
2018,09,17,03,48,10.10
2018,09,17,03,49,10.10
2018,09,17,03,50,10.10
2018,09,17,03,51,10.00
2018,09,17,03,52,10.00
2018,09,17,03,53,10.00
2018,09,17,03,54,10.00
2018,09,17,03,55,10.00
2018,09,17,03,56,10.00
2018,09,17,03,57,10.00
2018,09,17,03,58,10.00
2018,09,17,03,59,10.00
2018,09,17,04,00,10.00
2018,09,17,04,01,10.00
2018,09,17,04,02,10.00
2018,09,17,04,03,10.00
2018,09,17,04,04,10.00
2018,09,17,04,05,10.00
2018,09,17,04,06,10.00
2018,09,17,04,07,9.90
2018,09,17,04,08,9.90
2018,09,17,04,09,9.90
2018,09,17,04,10,9.90
2018,09,17,04,11,9.90
2018,09,17,04,12,9.90
2018,09,17,04,13,9.90
2018,09,17,04,14,9.90
2018,09,17,04,15,9.90
2018,09,17,04,16,9.90
2018,09,17,04,17,9.90
2018,09,17,04,18,9.80
2018,09,17,04,19,9.80
2018,09,17,04,20,9.80
2018,09,17,04,21,9.80
2018,09,17,04,22,9.70
2018,09,17,04,23,9.70
2018,09,17,04,24,9.70
2018,09,17,04,25,9.70
2018,09,17,04,26,9.70
2018,09,17,04,27,9.70
2018,09,17,04,28,9.70
2018,09,17,04,29,9.70
2018,09,17,04,30,9.70
2018,09,17,04,31,9.60
2018,09,17,04,32,9.60
2018,09,17,04,33,9.60
2018,09,17,04,34,9.60
2018,09,17,04,35,9.60
2018,09,17,04,36,9.60
2018,09,17,04,37,9.60
2018,09,17,04,38,9.60
2018,09,17,04,39,9.60
2018,09,17,04,40,9.60
2018,09,17,04,41,9.60
2018,09,17,04,42,9.60
2018,09,17,04,43,9.60
2018,09,17,04,44,9.60
2018,09,17,04,45,9.60
2018,09,17,04,46,9.60
2018,09,17,04,47,9.60
2018,09,17,04,48,9.60
2018,09,17,04,49,9.60
2018,09,17,04,50,9.60
2018,09,17,04,51,9.60
2018,09,17,04,52,9.60
2018,09,17,04,53,9.60
2018,09,17,04,54,9.60
2018,09,17,04,55,9.60
2018,09,17,04,56,9.50
2018,09,17,04,57,9.50
2018,09,17,04,58,9.50
2018,09,17,04,59,9.50
2018,09,17,05,00,9.50
2018,09,17,05,01,9.50
2018,09,17,05,02,9.50
2018,09,17,05,03,9.50
2018,09,17,05,04,9.50
2018,09,17,05,05,9.50
2018,09,17,05,06,9.50
2018,09,17,05,07,9.60
2018,09,17,05,08,9.60
2018,09,17,05,09,9.60
2018,09,17,05,10,9.60
2018,09,17,05,11,9.60
2018,09,17,05,12,9.60
2018,09,17,05,13,9.60
2018,09,17,05,14,9.60
2018,09,17,05,15,9.60
2018,09,17,05,16,9.60
2018,09,17,05,17,9.60
2018,09,17,05,18,9.60
2018,09,17,05,19,9.60
2018,09,17,05,20,9.60
2018,09,17,05,21,9.60
2018,09,17,05,22,9.60
2018,09,17,05,23,9.60
2018,09,17,05,24,9.60
2018,09,17,05,25,9.60
2018,09,17,05,26,9.60
2018,09,17,05,27,9.60
2018,09,17,05,28,9.60
2018,09,17,05,29,9.60
2018,09,17,05,30,9.60
2018,09,17,05,31,9.60
2018,09,17,05,32,9.60
2018,09,17,05,33,9.60
2018,09,17,05,34,9.60
2018,09,17,05,35,9.60
2018,09,17,05,36,9.60
2018,09,17,05,37,9.60
2018,09,17,05,38,9.60
2018,09,17,05,39,9.60
2018,09,17,05,40,9.60
2018,09,17,05,41,9.60
2018,09,17,05,42,9.60
2018,09,17,05,43,9.60
2018,09,17,05,44,9.60
2018,09,17,05,45,9.60
2018,09,17,05,46,9.60
2018,09,17,05,47,9.60
2018,09,17,05,48,9.60
2018,09,17,05,49,9.60
2018,09,17,05,50,9.60
2018,09,17,05,51,9.60
2018,09,17,05,52,9.60
2018,09,17,05,53,9.60
2018,09,17,05,54,9.60
2018,09,17,05,55,9.60
2018,09,17,05,56,9.60
2018,09,17,05,57,9.60
2018,09,17,05,58,9.60
2018,09,17,05,59,9.60
2018,09,17,06,00,9.60
2018,09,17,06,01,9.60
2018,09,17,06,02,9.60
2018,09,17,06,03,9.60
2018,09,17,06,04,9.60
2018,09,17,06,05,9.60
2018,09,17,06,06,9.60
2018,09,17,06,07,9.60
2018,09,17,06,08,9.60
2018,09,17,06,09,9.60
2018,09,17,06,10,9.60
2018,09,17,06,11,9.60
2018,09,17,06,12,9.60
2018,09,17,06,13,9.60
2018,09,17,06,14,9.60
2018,09,17,06,15,9.60
2018,09,17,06,16,9.60
2018,09,17,06,17,9.70
2018,09,17,06,18,9.70
2018,09,17,06,19,9.70
2018,09,17,06,20,9.70
2018,09,17,06,21,9.70
2018,09,17,06,22,9.70
2018,09,17,06,23,9.70
2018,09,17,06,24,9.70
2018,09,17,06,25,9.60
2018,09,17,06,26,9.60
2018,09,17,06,27,9.60
2018,09,17,06,28,9.60
2018,09,17,06,29,9.60
2018,09,17,06,30,9.60
2018,09,17,06,31,9.60
2018,09,17,06,32,9.60
2018,09,17,06,33,9.60
2018,09,17,06,34,9.60
2018,09,17,06,35,9.60
2018,09,17,06,36,9.60
2018,09,17,06,37,9.60
2018,09,17,06,38,9.60
2018,09,17,06,39,9.60
2018,09,17,06,40,9.60
2018,09,17,06,41,9.50
2018,09,17,06,42,9.50
2018,09,17,06,43,9.50
2018,09,17,06,44,9.50
2018,09,17,06,45,9.50
2018,09,17,06,46,9.50
2018,09,17,06,47,9.50
2018,09,17,06,48,9.50
2018,09,17,06,49,9.50
2018,09,17,06,50,9.40
2018,09,17,06,51,9.40
2018,09,17,06,52,9.40
2018,09,17,06,53,9.40
2018,09,17,06,54,9.40
2018,09,17,06,55,9.40
2018,09,17,06,56,9.40
2018,09,17,06,57,9.40
2018,09,17,06,58,9.40
2018,09,17,06,59,9.40
2018,09,17,07,00,9.40
2018,09,17,07,01,9.40
2018,09,17,07,02,9.40
2018,09,17,07,03,9.40
2018,09,17,07,04,9.30
2018,09,17,07,05,9.40
2018,09,17,07,06,9.30
2018,09,17,07,07,9.30
2018,09,17,07,08,9.30
2018,09,17,07,09,9.30
2018,09,17,07,10,9.30
2018,09,17,07,11,9.30
2018,09,17,07,12,9.30
2018,09,17,07,13,9.30
2018,09,17,07,14,9.30
2018,09,17,07,15,9.30
2018,09,17,07,16,9.30
2018,09,17,07,17,9.30
2018,09,17,07,18,9.30
2018,09,17,07,19,9.30
2018,09,17,07,20,9.30
2018,09,17,07,21,9.30
2018,09,17,07,22,9.30
2018,09,17,07,23,9.30
2018,09,17,07,24,9.30
2018,09,17,07,25,9.30
2018,09,17,07,26,9.30
2018,09,17,07,27,9.30
2018,09,17,07,28,9.30
2018,09,17,07,29,9.30
2018,09,17,07,30,9.30
2018,09,17,07,31,9.30
2018,09,17,07,32,9.30
2018,09,17,07,33,9.30
2018,09,17,07,34,9.30
2018,09,17,07,35,9.40
2018,09,17,07,36,9.40
2018,09,17,07,37,9.40
2018,09,17,07,38,9.50
2018,09,17,07,39,9.60
2018,09,17,07,40,9.60
2018,09,17,07,41,9.60
2018,09,17,07,42,9.70
2018,09,17,07,43,9.70
2018,09,17,07,44,9.80
2018,09,17,07,45,9.80
2018,09,17,07,46,9.90
2018,09,17,07,47,9.90
2018,09,17,07,48,9.90
2018,09,17,07,49,9.90
2018,09,17,07,50,9.90
2018,09,17,07,51,9.90
2018,09,17,07,52,10.00
2018,09,17,07,53,10.00
2018,09,17,07,54,10.10
2018,09,17,07,55,10.10
2018,09,17,07,56,10.10
2018,09,17,07,57,10.10
2018,09,17,07,58,10.20
2018,09,17,07,59,10.20
2018,09,17,08,00,10.20
2018,09,17,08,01,10.20
2018,09,17,08,02,10.30
2018,09,17,08,03,10.30
2018,09,17,08,04,10.30
2018,09,17,08,05,10.30
2018,09,17,08,06,10.30
2018,09,17,08,07,10.30
2018,09,17,08,08,10.30
2018,09,17,08,09,10.30
2018,09,17,08,10,10.30
2018,09,17,08,11,10.40
2018,09,17,08,12,10.40
2018,09,17,08,13,10.40
2018,09,17,08,14,10.40
2018,09,17,08,15,10.40
2018,09,17,08,16,10.40
2018,09,17,08,17,10.40
2018,09,17,08,18,10.40
2018,09,17,08,19,10.40
2018,09,17,08,20,10.40
2018,09,17,08,21,10.40
2018,09,17,08,22,10.40
2018,09,17,08,23,10.40
2018,09,17,08,24,10.40
2018,09,17,08,25,10.40
2018,09,17,08,26,10.40
2018,09,17,08,27,10.40
2018,09,17,08,28,10.40
2018,09,17,08,29,10.40
2018,09,17,08,30,10.40
2018,09,17,08,31,10.40
2018,09,17,08,32,10.40
2018,09,17,08,33,10.40
2018,09,17,08,34,10.40
2018,09,17,08,35,10.30
2018,09,17,08,36,10.30
2018,09,17,08,37,10.40
2018,09,17,08,38,10.40
2018,09,17,08,39,10.40
2018,09,17,08,40,10.40
2018,09,17,08,41,10.50
2018,09,17,08,42,10.50
2018,09,17,08,43,10.50
2018,09,17,08,44,10.60
2018,09,17,08,45,10.60
2018,09,17,08,46,10.60
2018,09,17,08,47,10.60
2018,09,17,08,48,10.60
2018,09,17,08,49,10.60
2018,09,17,08,50,10.60
2018,09,17,08,51,10.60
2018,09,17,08,52,10.70
2018,09,17,08,53,10.70
2018,09,17,08,54,10.70
2018,09,17,08,55,10.70
2018,09,17,08,56,10.70
2018,09,17,08,57,10.70
2018,09,17,08,58,10.70
2018,09,17,08,59,10.70
2018,09,17,09,00,10.70
2018,09,17,09,01,10.70
2018,09,17,09,02,10.80
2018,09,17,09,03,10.80
2018,09,17,09,04,10.80
2018,09,17,09,05,10.80
2018,09,17,09,06,10.90
2018,09,17,09,07,10.90
2018,09,17,09,08,10.90
2018,09,17,09,09,11.00
2018,09,17,09,10,11.00
2018,09,17,09,11,11.10
2018,09,17,09,12,11.10
2018,09,17,09,13,11.20
2018,09,17,09,14,11.20
2018,09,17,09,15,11.30
2018,09,17,09,16,11.30
2018,09,17,09,17,11.40
2018,09,17,09,18,11.40
2018,09,17,09,19,11.40
2018,09,17,09,20,11.40
2018,09,17,09,21,11.50
2018,09,17,09,22,11.50
2018,09,17,09,23,11.50
2018,09,17,09,24,11.60
2018,09,17,09,25,11.60
2018,09,17,09,26,11.70
2018,09,17,09,27,11.70
2018,09,17,09,28,11.80
2018,09,17,09,29,11.80
2018,09,17,09,30,11.80
2018,09,17,09,31,11.90
2018,09,17,09,32,11.90
2018,09,17,09,33,12.00
2018,09,17,09,34,12.00
2018,09,17,09,35,12.00
2018,09,17,09,36,12.10
2018,09,17,09,37,12.10
2018,09,17,09,38,12.10
2018,09,17,09,39,12.10
2018,09,17,09,40,12.20
2018,09,17,09,41,12.20
2018,09,17,09,42,12.20
2018,09,17,09,43,12.20
2018,09,17,09,44,12.20
2018,09,17,09,45,12.20
2018,09,17,09,46,12.30
2018,09,17,09,47,12.30
2018,09,17,09,48,12.30
2018,09,17,09,49,12.30
2018,09,17,09,50,12.30
2018,09,17,09,51,12.30
2018,09,17,09,52,12.30
2018,09,17,09,53,12.30
2018,09,17,09,54,12.30
2018,09,17,09,55,12.30
2018,09,17,09,56,12.30
2018,09,17,09,57,12.30
2018,09,17,09,58,12.30
2018,09,17,09,59,12.30
2018,09,17,10,00,12.30
2018,09,17,10,01,12.40
2018,09,17,10,02,12.40
2018,09,17,10,03,12.40
2018,09,17,10,04,12.50
2018,09,17,10,05,12.50
2018,09,17,10,06,12.60
2018,09,17,10,07,12.60
2018,09,17,10,08,12.70
2018,09,17,10,09,12.70
2018,09,17,10,10,12.80
2018,09,17,10,11,12.80
2018,09,17,10,12,12.80
2018,09,17,10,13,12.90
2018,09,17,10,14,12.90
2018,09,17,10,15,12.90
2018,09,17,10,16,12.90
2018,09,17,10,17,12.90
2018,09,17,10,18,12.90
2018,09,17,10,19,12.90
2018,09,17,10,20,12.90
2018,09,17,10,21,12.80
2018,09,17,10,22,12.80
2018,09,17,10,23,12.80
2018,09,17,10,24,12.80
2018,09,17,10,25,12.80
2018,09,17,10,26,12.80
2018,09,17,10,27,12.80
2018,09,17,10,28,12.80
2018,09,17,10,29,12.80
2018,09,17,10,30,12.80
2018,09,17,10,31,12.70
2018,09,17,10,32,12.70
2018,09,17,10,33,12.80
2018,09,17,10,34,12.80
2018,09,17,10,35,12.80
2018,09,17,10,36,12.80
2018,09,17,10,37,12.90
2018,09,17,10,38,12.90
2018,09,17,10,39,12.90
2018,09,17,10,40,12.90
2018,09,17,10,41,13.00
2018,09,17,10,42,13.00
2018,09,17,10,43,13.10
2018,09,17,10,44,13.10
2018,09,17,10,45,13.10
2018,09,17,10,46,13.10
2018,09,17,10,47,13.10
2018,09,17,10,48,13.10
2018,09,17,10,49,13.10
2018,09,17,10,50,13.10
2018,09,17,10,51,13.10
2018,09,17,10,52,13.20
2018,09,17,10,53,13.20
2018,09,17,10,54,13.30
2018,09,17,10,55,13.30
2018,09,17,10,56,13.30
2018,09,17,10,57,13.40
2018,09,17,10,58,13.40
2018,09,17,10,59,13.50
2018,09,17,11,00,13.50
2018,09,17,11,01,13.50
2018,09,17,11,02,13.50
2018,09,17,11,03,13.50
2018,09,17,11,04,13.50
2018,09,17,11,05,13.50
2018,09,17,11,06,13.50
2018,09,17,11,07,13.40
2018,09,17,11,08,13.40
2018,09,17,11,09,13.30
2018,09,17,11,10,13.20
2018,09,17,11,11,13.20
2018,09,17,11,12,13.10
2018,09,17,11,13,13.10
2018,09,17,11,14,13.10
2018,09,17,11,15,13.10
2018,09,17,11,16,13.20
2018,09,17,11,17,13.20
2018,09,17,11,18,13.20
2018,09,17,11,19,13.20
2018,09,17,11,20,13.30
2018,09,17,11,21,13.30
2018,09,17,11,22,13.40
2018,09,17,11,23,13.40
2018,09,17,11,24,13.40
2018,09,17,11,25,13.40
2018,09,17,11,26,13.40
2018,09,17,11,27,13.40
2018,09,17,11,28,13.40
2018,09,17,11,29,13.40
2018,09,17,11,30,13.30
2018,09,17,11,31,13.30
2018,09,17,11,32,13.30
2018,09,17,11,33,13.30
2018,09,17,11,34,13.30
2018,09,17,11,35,13.30
2018,09,17,11,36,13.30
2018,09,17,11,37,13.30
2018,09,17,11,38,13.30
2018,09,17,11,39,13.30
2018,09,17,11,40,13.30
2018,09,17,11,41,13.30
2018,09,17,11,42,13.30
2018,09,17,11,43,13.30
2018,09,17,11,44,13.30
2018,09,17,11,45,13.30
2018,09,17,11,46,13.40
2018,09,17,11,47,13.40
2018,09,17,11,48,13.50
2018,09,17,11,49,13.50
2018,09,17,11,50,13.60
2018,09,17,11,51,13.60
2018,09,17,11,52,13.60
2018,09,17,11,53,13.60
2018,09,17,11,54,13.60
2018,09,17,11,55,13.60
2018,09,17,11,56,13.60
2018,09,17,11,57,13.60
2018,09,17,11,58,13.50
2018,09,17,11,59,13.50
2018,09,17,12,00,13.60
2018,09,17,12,01,13.60
2018,09,17,12,02,13.60
2018,09,17,12,03,13.60
2018,09,17,12,04,13.60
2018,09,17,12,05,13.60
2018,09,17,12,06,13.60
2018,09,17,12,07,13.60
2018,09,17,12,08,13.70
2018,09,17,12,09,13.70
2018,09,17,12,10,13.80
2018,09,17,12,11,13.80
2018,09,17,12,12,13.80
2018,09,17,12,13,13.80
2018,09,17,12,14,13.90
2018,09,17,12,15,13.90
2018,09,17,12,16,13.90
2018,09,17,12,17,13.90
2018,09,17,12,18,13.90
2018,09,17,12,19,13.90
2018,09,17,12,20,13.90
2018,09,17,12,21,13.90
2018,09,17,12,22,13.90
2018,09,17,12,23,13.90
2018,09,17,12,24,13.80
2018,09,17,12,25,13.80
2018,09,17,12,26,13.80
2018,09,17,12,27,13.90
2018,09,17,12,28,13.90
2018,09,17,12,29,13.90
2018,09,17,12,30,13.80
2018,09,17,12,31,13.90
2018,09,17,12,32,13.90
2018,09,17,12,33,13.90
2018,09,17,12,34,14.00
2018,09,17,12,35,14.00
2018,09,17,12,36,14.00
2018,09,17,12,37,14.00
2018,09,17,12,38,13.90
2018,09,17,12,39,13.90
2018,09,17,12,40,13.90
2018,09,17,12,41,13.90
2018,09,17,12,42,13.80
2018,09,17,12,43,13.80
2018,09,17,12,44,13.80
2018,09,17,12,45,13.80
2018,09,17,12,46,13.90
2018,09,17,12,47,13.90
2018,09,17,12,48,13.90
2018,09,17,12,49,13.90
2018,09,17,12,50,13.90
2018,09,17,12,51,13.90
2018,09,17,12,52,14.00
2018,09,17,12,53,14.00
2018,09,17,12,54,14.10
2018,09,17,12,55,14.10
2018,09,17,12,56,14.20
2018,09,17,12,57,14.20
2018,09,17,12,58,14.30
2018,09,17,12,59,14.40
2018,09,17,13,00,14.50
2018,09,17,13,01,14.60
2018,09,17,13,02,14.60
2018,09,17,13,03,14.60
2018,09,17,13,04,14.60
2018,09,17,13,05,14.60
2018,09,17,13,06,14.70
2018,09,17,13,07,14.70
2018,09,17,13,08,14.70
2018,09,17,13,09,14.70
2018,09,17,13,10,14.70
2018,09,17,13,11,14.70
2018,09,17,13,12,14.60
2018,09,17,13,13,14.50
2018,09,17,13,14,14.50
2018,09,17,13,15,14.40
2018,09,17,13,16,14.40
2018,09,17,13,17,14.40
2018,09,17,13,18,14.40
2018,09,17,13,19,14.50
2018,09,17,13,20,14.50
2018,09,17,13,21,14.60
2018,09,17,13,22,14.70
2018,09,17,13,23,14.80
2018,09,17,13,24,14.80
2018,09,17,13,25,14.90
2018,09,17,13,26,15.00
2018,09,17,13,27,15.00
2018,09,17,13,28,15.10
2018,09,17,13,29,15.10
2018,09,17,13,30,15.10
2018,09,17,13,31,15.20
2018,09,17,13,32,15.40
2018,09,17,13,33,15.60
2018,09,17,13,34,15.70
2018,09,17,13,35,15.80
2018,09,17,13,36,15.80
2018,09,17,13,37,15.80
2018,09,17,13,38,15.80
2018,09,17,13,39,15.80
2018,09,17,13,40,15.70
2018,09,17,13,41,15.70
2018,09,17,13,42,15.70
2018,09,17,13,43,15.60
2018,09,17,13,44,15.60
2018,09,17,13,45,15.50
2018,09,17,13,46,15.40
2018,09,17,13,47,15.30
2018,09,17,13,48,15.30
2018,09,17,13,49,15.30
2018,09,17,13,50,15.20
2018,09,17,13,51,15.10
2018,09,17,13,52,15.10
2018,09,17,13,53,15.00
2018,09,17,13,54,14.90
2018,09,17,13,55,14.90
2018,09,17,13,56,14.90
2018,09,17,13,57,15.00
2018,09,17,13,58,15.00
2018,09,17,13,59,15.00
2018,09,17,14,00,15.00
2018,09,17,14,01,15.00
2018,09,17,14,02,15.00
2018,09,17,14,03,15.00
2018,09,17,14,04,14.90
2018,09,17,14,05,14.90
2018,09,17,14,06,14.80
2018,09,17,14,07,14.80
2018,09,17,14,08,14.70
2018,09,17,14,09,14.70
2018,09,17,14,10,14.60
2018,09,17,14,11,14.60
2018,09,17,14,12,14.60
2018,09,17,14,13,14.60
2018,09,17,14,14,14.60
2018,09,17,14,15,14.60
2018,09,17,14,16,14.60
2018,09,17,14,17,14.60
2018,09,17,14,18,14.60
2018,09,17,14,19,14.60
2018,09,17,14,20,14.70
2018,09,17,14,21,14.70
2018,09,17,14,22,14.70
2018,09,17,14,23,14.70
2018,09,17,14,24,14.80
2018,09,17,14,25,14.80
2018,09,17,14,26,14.80
2018,09,17,14,27,14.80
2018,09,17,14,28,14.90
2018,09,17,14,29,14.90
2018,09,17,14,30,14.90
2018,09,17,14,31,15.00
2018,09,17,14,32,15.00
2018,09,17,14,33,15.10
2018,09,17,14,34,15.10
2018,09,17,14,35,15.20
2018,09,17,14,36,15.20
2018,09,17,14,37,15.20
2018,09,17,14,38,15.20
2018,09,17,14,39,15.20
2018,09,17,14,40,15.30
2018,09,17,14,41,15.30
2018,09,17,14,42,15.40
2018,09,17,14,43,15.40
2018,09,17,14,44,15.40
2018,09,17,14,45,15.40
2018,09,17,14,46,15.40
2018,09,17,14,47,15.40
2018,09,17,14,48,15.30
2018,09,17,14,49,15.30
2018,09,17,14,50,15.30
2018,09,17,14,51,15.20
2018,09,17,14,52,15.20
2018,09,17,14,53,15.20
2018,09,17,14,54,15.20
2018,09,17,14,55,15.20
2018,09,17,14,56,15.10
2018,09,17,14,57,15.10
2018,09,17,14,58,15.10
2018,09,17,14,59,15.00
2018,09,17,15,00,15.10
2018,09,17,15,01,15.10
2018,09,17,15,02,15.10
2018,09,17,15,03,15.10
2018,09,17,15,04,15.10
2018,09,17,15,05,15.10
2018,09,17,15,06,15.10
2018,09,17,15,07,15.10
2018,09,17,15,08,15.10
2018,09,17,15,09,15.10
2018,09,17,15,10,15.10
2018,09,17,15,11,15.10
2018,09,17,15,12,15.10
2018,09,17,15,13,15.20
2018,09,17,15,14,15.20
2018,09,17,15,15,15.20
2018,09,17,15,16,15.30
2018,09,17,15,17,15.30
2018,09,17,15,18,15.40
2018,09,17,15,19,15.40
2018,09,17,15,20,15.50
2018,09,17,15,21,15.60
2018,09,17,15,22,15.50
2018,09,17,15,23,15.50
2018,09,17,15,24,15.50
2018,09,17,15,25,15.40
2018,09,17,15,26,15.40
2018,09,17,15,27,15.40
2018,09,17,15,28,15.40
2018,09,17,15,29,15.40
2018,09,17,15,30,15.40
2018,09,17,15,31,15.40
2018,09,17,15,32,15.40
2018,09,17,15,33,15.50
2018,09,17,15,34,15.50
2018,09,17,15,35,15.60
2018,09,17,15,36,15.80
2018,09,17,15,37,15.90
2018,09,17,15,38,16.00
2018,09,17,15,39,16.10
2018,09,17,15,40,16.10
2018,09,17,15,41,16.10
2018,09,17,15,42,16.20
2018,09,17,15,43,16.20
2018,09,17,15,44,16.20
2018,09,17,15,45,16.20
2018,09,17,15,46,16.20
2018,09,17,15,47,16.20
2018,09,17,15,48,16.20
2018,09,17,15,49,16.20
2018,09,17,15,50,16.20
2018,09,17,15,51,16.20
2018,09,17,15,52,16.20
2018,09,17,15,53,16.20
2018,09,17,15,54,16.20
2018,09,17,15,55,16.20
2018,09,17,15,56,16.20
2018,09,17,15,57,16.20
2018,09,17,15,58,16.20
2018,09,17,15,59,16.20
2018,09,17,16,00,16.10
2018,09,17,16,01,16.10
2018,09,17,16,02,16.00
2018,09,17,16,03,15.90
2018,09,17,16,04,15.80
2018,09,17,16,05,15.80
2018,09,17,16,06,15.70
2018,09,17,16,07,15.60
2018,09,17,16,08,15.60
2018,09,17,16,09,15.60
2018,09,17,16,10,15.70
2018,09,17,16,11,15.80
2018,09,17,16,12,15.80
2018,09,17,16,13,15.90
2018,09,17,16,14,16.00
2018,09,17,16,15,16.00
2018,09,17,16,16,16.00
2018,09,17,16,17,16.10
2018,09,17,16,18,16.10
2018,09,17,16,19,16.10
2018,09,17,16,20,16.10
2018,09,17,16,21,16.10
2018,09,17,16,22,16.00
2018,09,17,16,23,16.00
2018,09,17,16,24,16.00
2018,09,17,16,25,15.90
2018,09,17,16,26,15.90
2018,09,17,16,27,15.90
2018,09,17,16,28,15.90
2018,09,17,16,29,15.90
2018,09,17,16,30,16.00
2018,09,17,16,31,16.10
2018,09,17,16,32,16.20
2018,09,17,16,33,16.30
2018,09,17,16,34,16.30
2018,09,17,16,35,16.40
2018,09,17,16,36,16.40
2018,09,17,16,37,16.40
2018,09,17,16,38,16.40
2018,09,17,16,39,16.40
2018,09,17,16,40,16.40
2018,09,17,16,41,16.40
2018,09,17,16,42,16.30
2018,09,17,16,43,16.30
2018,09,17,16,44,16.30
2018,09,17,16,45,16.30
2018,09,17,16,46,16.30
2018,09,17,16,47,16.40
2018,09,17,16,48,16.40
2018,09,17,16,49,16.40
2018,09,17,16,50,16.50
2018,09,17,16,51,16.50
2018,09,17,16,52,16.50
2018,09,17,16,53,16.50
2018,09,17,16,54,16.40
2018,09,17,16,55,16.40
2018,09,17,16,56,16.30
2018,09,17,16,57,16.20
2018,09,17,16,58,16.20
2018,09,17,16,59,16.10
2018,09,17,17,00,16.00
2018,09,17,17,01,15.90
2018,09,17,17,02,15.80
2018,09,17,17,03,15.70
2018,09,17,17,04,15.60
2018,09,17,17,05,15.50
2018,09,17,17,06,15.40
2018,09,17,17,07,15.40
2018,09,17,17,08,15.40
2018,09,17,17,09,15.40
2018,09,17,17,10,15.40
2018,09,17,17,11,15.40
2018,09,17,17,12,15.40
2018,09,17,17,13,15.40
2018,09,17,17,14,15.40
2018,09,17,17,15,15.50
2018,09,17,17,16,15.40
2018,09,17,17,17,15.40
2018,09,17,17,18,15.40
2018,09,17,17,19,15.40
2018,09,17,17,20,15.40
2018,09,17,17,21,15.40
2018,09,17,17,22,15.40
2018,09,17,17,23,15.40
2018,09,17,17,24,15.40
2018,09,17,17,25,15.40
2018,09,17,17,26,15.40
2018,09,17,17,27,15.40
2018,09,17,17,28,15.50
2018,09,17,17,29,15.50